Weather History for Winnemucca, NV

Change the Weather History Date:

Friday, September 20, 2013

  Actual Average Record
Temperature  
Mean Temperature 62 °F 59 °F  
Max Temperature 86 °F 79 °F 96 °F (1939)
Min Temperature 37 °F 38 °F 20 °F (1978)
Degree Days  
Heating Degree Days 3 7  
Month to date heating degree days 31 85  
Since 1 July heating degree days 31 115  
Cooling Degree Days 0 0  
Month to date cooling degree days 79 29  
Year to date cooling degree days 760 539  
Growing Degree Days 12 (Base 50)    
Moisture  
Dew Point 19 °F    
Average Humidity 24    
Maximum Humidity 40    
Minimum Humidity 7    
Precipitation  
Precipitation 0.00 in 0.02 in 0.52 in (1902)
Month to date precipitation 0.39 0.26  
Year to date precipitation 2.80 5.62  
Snow  
Snow 0.00 in 0.00 in 0.00 in (1877)
Month to date snowfall 0.0 0.0  
Since 1 July snowfall T 0.0  
Since 1 September snowfall 0.0 0.0  
Snow Depth 0.00 in    
Sea Level Pressure  
Sea Level Pressure 29.76 in    
Wind  
Wind Speed 9 mph (SSE)    
Max Wind Speed 24 mph    
Max Gust Speed 31 mph    
Visibility 10 miles    
Events      
T = Trace of Precipitation, MM = Missing Value Source: NWS Daily Summary

Daily Weather History Graph

Daily Weather History Graph

Search for Another Location

Airport:

Trip Planner

Search our weather history database for the weather conditions in past years. The results will help you decide how hot, cold, wet, or windy it might be!

Date:

Astronomy

Sep. 20, 2013 Rise Set
Actual Time 6:37 AM PDT 6:51 PM PDT
Civil Twilight 6:09 AM PDT 7:18 PM PDT
Nautical Twilight 5:37 AM PDT 7:50 PM PDT
Astronomical Twilight 5:04 AM PDT 8:23 PM PDT
Moon 7:26 PM PDT (9/20) 7:57 AM PDT (9/20)
Length of Visible Light 13h 08m
Length of Day
12h 14m
Full, 98% of the Moon is Illuminated
Sep 20
Full
Sep 26
Last Quarter
Oct 4
New
Oct 11
First Quarter
Oct 18
Full

Hourly Weather History & Observations

Time (PDT) Temp. Windchill Dew Point Humidity Pressure Visibility Wind Dir Wind Speed Gust Speed Precip Events Conditions
12:56 AM 44.1 °F 42.5 °F 17.1 °F 34% 29.89 in 10.0 mi SE 3.5 mph - N/A   Clear
1:56 AM 41.0 °F 36.4 °F 17.1 °F 38% 29.89 in 10.0 mi SE 6.9 mph - N/A   Clear
2:56 AM 42.1 °F 36.6 °F 18.0 °F 38% 29.87 in 10.0 mi ESE 9.2 mph - N/A   Clear
3:56 AM 42.1 °F 36.6 °F 18.0 °F 38% 29.86 in 10.0 mi SE 9.2 mph - N/A   Clear
4:56 AM 41.0 °F 36.4 °F 17.1 °F 38% 29.86 in 10.0 mi SE 6.9 mph - N/A   Clear
5:56 AM 37.9 °F 32.1 °F 16.0 °F 41% 29.86 in 10.0 mi SE 8.1 mph - N/A   Clear
6:56 AM 48.0 °F - 19.9 °F 33% 29.85 in 10.0 mi ENE 9.2 mph - N/A   Clear
7:56 AM 53.1 °F - 21.0 °F 29% 29.85 in 10.0 mi ENE 5.8 mph - N/A   Clear
8:56 AM 61.0 °F - 21.0 °F 21% 29.84 in 10.0 mi NE 6.9 mph - N/A   Clear
9:56 AM 66.0 °F - 21.9 °F 19% 29.83 in 10.0 mi NE 5.8 mph - N/A   Clear
10:56 AM 72.0 °F - 21.0 °F 15% 29.78 in 10.0 mi Variable 4.6 mph - N/A   Clear
11:56 AM 78.1 °F - 19.9 °F 11% 29.77 in 10.0 mi Variable 3.5 mph - N/A   Clear
12:56 PM 81.0 °F - 17.1 °F 9% 29.73 in 10.0 mi Variable 5.8 mph - N/A   Clear
1:56 PM 84.0 °F - 17.1 °F 8% 29.70 in 10.0 mi SSW 10.4 mph 23.0 mph N/A   Clear
2:56 PM 84.9 °F - 17.1 °F 8% 29.67 in 10.0 mi South 20.7 mph 26.5 mph N/A   Clear
3:56 PM 84.9 °F - 12.9 °F 7% 29.66 in 10.0 mi South 18.4 mph 25.3 mph N/A   Clear
4:56 PM 84.0 °F - 14.0 °F 7% 29.65 in 10.0 mi SSW 12.7 mph 24.2 mph N/A   Clear
5:56 PM 82.0 °F - 16.0 °F 8% 29.63 in 10.0 mi SSW 9.2 mph 19.6 mph N/A   Clear
6:56 PM 71.1 °F - 18.0 °F 13% 29.62 in 10.0 mi SSW 6.9 mph - N/A   Clear
7:56 PM 70.0 °F - 24.1 °F 18% 29.66 in 10.0 mi West 10.4 mph - N/A   Clear
8:56 PM 66.0 °F - 24.1 °F 20% 29.68 in 10.0 mi Variable 3.5 mph - N/A   Clear
9:56 PM 66.0 °F - 25.0 °F 21% 29.69 in 10.0 mi West 10.4 mph - N/A   Clear
10:56 PM 61.0 °F - 24.1 °F 24% 29.70 in 10.0 mi West 11.5 mph - N/A   Clear
11:56 PM 60.1 °F - 23.0 °F 24% 29.70 in 10.0 mi Calm Calm - N/A   Clear